Regional Weather Roundup
Issued by NWS Boston, MA

Home | Current Version | Previous Version | Text Only | Print | Product List | Glossary On
Versions: 1 2 3 4 5 6 7 8 9 10 11 12 13 14 15 16 17 18 19 20 21 22 23 24 25 26 27 28 29 30 31 32 33 34 35 36 37 38 39 40 41 42 43 44 45 46 47 48 49 50
395
ASUS41 KBOX 220810
RWRBOX

REGIONAL WEATHER ROUNDUP
NATIONAL WEATHER SERVICE TAUNTON MA
400 AM EDT FRI SEP 22 2017

NOTE:  "FAIR" INDICATES FEW OR NO CLOUDS BELOW 12,000 FEET WITH NO
SIGNIFICANT WEATHER AND/OR OBSTRUCTIONS TO VISIBILITY.

MAZALL-220900-
EASTERN MASSACHUSETTS

CITY           SKY/WX    TMP DP  RH WIND       PRES   REMARKS
BOSTON         CLOUDY    61  54  77 N24G35    30.00S
BEVERLY        CLOUDY    60  54  80 N20G35    30.01F
LAWRENCE       CLOUDY    65  50  58 NE15      30.05F
BEDFORD        CLOUDY    63  48  58 NE13G25   30.01S
BLUE HILL        N/A     57  54  89 N17G36    29.98S
NORWOOD        CLOUDY    63  56  78 N12G26    29.99S
MARSHFIELD     CLOUDY    61  59  94 N15G29    29.95F
PLYMOUTH       LGT RAIN  60  56  86 NE24G36   29.93S FOG
TAUNTON        LGT RAIN  59  56  89 N10G26    29.94S
NEW BEDFORD    HVY RAIN  58  56  93 N16G33    29.89S FOG
$$

MAZALL-220900-
CAPE COD AND THE ISLANDS

CITY           SKY/WX    TMP DP  RH WIND       PRES   REMARKS
FALMOUTH       HVY RAIN  57  57 100 N20G37    29.88S
HYANNIS        LGT RAIN  60  59  96 N22G30    29.83S FOG
CHATHAM        LGT RAIN  60  60 100 NE22G36   29.83F FOG
PROVINCETOWN   CLOUDY    59  55  87 NE26G37   29.91S
NANTUCKET      CLOUDY    61  61 100 N36G49    29.75S FOG
MARTHAS VNYRD  LGT RAIN  61  58  90 N22G45    29.82S
$$

MAZALL-220900-
CENTRAL AND WESTERN MASSACHUSETTS

CITY           SKY/WX    TMP DP  RH WIND       PRES   REMARKS
WORCESTER      PTCLDY    59  46  62 N17G28    30.02S
FITCHBURG      PTCLDY    62  49  62 N8        30.05F
ORANGE         CLOUDY    62  48  60 N10       30.05F
SPRINGFIELD    PTCLDY    64  47  54 N14       30.01F
WESTFIELD      PTCLDY    60  49  66 N10       30.03F
NORTH ADAMS    CLOUDY    52  51  97 CALM      30.09S
PITTSFIELD     MOCLDY    60  45  57 NE7       30.07F
$$

RIZALL-220900-
RHODE ISLAND

CITY           SKY/WX    TMP DP  RH WIND       PRES   REMARKS
PROVIDENCE     LGT RAIN  60  58  92 N30G38    29.95S
NEWPORT        CLOUDY    60  58  92 N24G37    29.90S
BLOCK ISLAND   LGT RAIN  60  57  89 N28G40    29.87S
SMITHFIELD     CLOUDY    60  55  83 NE17G29   29.97F
WESTERLY       CLOUDY    65  56  72 N20G32    29.91F
$$

CTZALL-220900-
CONNECTICUT

CITY           SKY/WX    TMP DP  RH WIND       PRES   REMARKS
BRADLEY INTL   PTCLDY    64  48  56 N12       30.01F
HARTFORD       PTCLDY    65  49  56 N13G20    29.99S
BRIDGEPORT     CLOUDY    68  48  48 N15G24    29.96S
DANBURY        MOCLDY    66  47  50 N9G17     30.02F
GROTON         MOCLDY    65  52  62 N23G31    29.91S
NEW HAVEN      MOCLDY    67  47  48 N23G31    29.95S
CHESTER        FAIR      64  50  59 N13G25    29.95S
MERIDEN        CLOUDY    65  47  52 N14G23    29.98S
WILLIMANTIC    PTCLDY    65  50  58 N16       29.98S
$$

MEZ002-015-021-024-NHZ003-005-008-011-012-014-VTZ005-008-220900-
NORTHERN NEW ENGLAND

CITY           SKY/WX    TMP DP  RH WIND       PRES   REMARKS
PORTLAND ME    CLOUDY    59  47  64 N15       30.09F
BANGOR ME      CLOUDY    50  45  83 N7        30.16F
CONCORD NH     CLOUDY    61  48  62 N7        30.08F
MANCHESTER NH  MOCLDY    63  48  58 N12       30.05F
NASHUA NH      CLOUDY    62  50  64 N5        30.06F
PORTSMOUTH NH  CLOUDY    62  48  59 NE14      30.04F
JAFFREY NH     PTCLDY    59  49  69 N6        30.08F
KEENE NH       CLOUDY    62  48  60 N14       30.07F
BURLINGTON VT  CLOUDY    54  52  93 SE5       30.12F
MT. WASHINGTON PTCLDY    50   9  18 E32         N/A
$$

NYZ052-076-220900-
EASTERN NEW YORK

CITY           SKY/WX    TMP DP  RH WIND       PRES   REMARKS
ALBANY         MOCLDY    60  54  80 NW3       30.09S
NEW YORK CITY  CLOUDY    69  51  52 N10       29.98F
$$

ANZALL-220900-
MARINE OBSERVATIONS

STATION/POSITION TIME  TEMP    WIND        PRES    VSBY  WAVE
                       AIR SEA DIR/SP/G                  HT/PER
                 (UTC) (F)     (DEG/KT/KT) (MB)    (MI)  (FT/S)
BOSTON BUOY      0650   60 60   20/ 27/ 33 1013.8         13/10
BUZZARDS BAY     0700   60      10/ 37/ 42 1010.0F
NANTUCKET SOUND  0650   61 62   20/ 31/ 41 1007.9          7/ 5
MASS BAY-STELLWA 0704   61 61   30/ 25     1014.3F        13/11
ISLE OF SHOALS   0700   59      40/ 25/ 28 1016.5F
S OF BLOCK IS    NOT AVBL
$$

......................KEY.........................
  SKY/WX - SKY CONDITION/PRESENT WEATHER
  TMP    - TEMPERATURE IN FAHRENHEIT
  DWPT   - DEWPOINT IN FAHRENHEIT
  RH     - RELATIVE HUMIDITY IN PERCENT
  WIND   - DIRECTION AND SPEED IN MPH
  PRES   - MEAN SEA LEVEL PRESSURE IN INCHES OF HG
  WCI    - WIND CHILL INDEX
  VSB    - VISIBILITY IN MILES
  HX     - HEAT INDEX
  TC     - TEMPERATURE IN CELSIUS
  VRB    - VARIABLE WIND DIRECTION
  N/A    - NOT AVAILABLE




USA.gov is the U.S. government's official web portal to all federal, state and local government web resources and services.